星链-34314 (STARLINK-34314)

导读

STARLINK-34314是美国太空探索技术公司(SpaceX)星链(Starlink)星座的一颗卫星,于2025年5月27日由美国发射升空。作为星链互联网星座的组成部分,它主要为全球范围内用户提供低延迟、高速率的宽带互联网接入服务,运行在近地轨道,进一步扩充了星链星座的卫星规模,提升了星座的覆盖能力与服务稳定性。

Basic Information
目录编号:
64146
目录名称:
STARLINK-34314
国际标识:
2025-112A
轨道中心:
EARTH
卫星名称:
星链-34314
卫星全名:
星链-34314 (STARLINK-34314)
卫星状态:
在轨 (已飞行465 天)
发射日期:
2025-05-27 UTC
国别 :
美国 (US)
星等 :
--
Orbit Information
数据来源 国际轨道数据 AOE轨道数据
星历时间 2026-09-03T11:08:59+0800
1天前
查看轨道信息
2026-09-04T00:00:00+0800
12小时前
查看轨道信息
半长轴 6843.668km 6843.734km
偏心率 0.0002426 0.0001373
轨道倾角 97.282° 97.284°
近地点辐角 113.379° 99.077°
升交点赤经 293.406° 293.933°
平近点角 246.771° 334.872°
近地点 463.87km 464.657km
远地点 467.192km 466.537km
周期 93.906分钟 93.907分钟
每日圈数 15.334492 15.334271
Detailed Information
固有亮度:
5
最大亮度:
2.5
卫星平台:
Starlink V1.0
覆盖范围:
全球
运营商:
太空探索技术公司
运营商所在国:
美国
制造商(研发单位):
太空探索技术公司
制造商所在国:
美国
使用方式:
暂无
Satellite Introduction
Starlink 计划是 SpaceX 推出的全球卫星互联网项目,通过发射低轨道卫星,为全球尤其是偏远地区提供高速、低延迟的互联网服务。自 2019 年起,Starlink 已部署数千颗卫星,旨在缩小全球数字鸿沟,推动互联网普及。该项目还为军事、航空等行业提供通信支持,带来广泛经济效益。
2D Orbit Map
3D Orbit Map
Orbit Altitude Analysis Chart
Orbit Inclination Analysis Chart
Orbit Comprehensive Analysis Chart
View Comprehensive Chart
Conjunction Data List
Event ID Objects TCA Miss Dist (km) Collision Risk Probability Collision Risk Index (CRI) Action
CDM_260905-034206-414606-538221
2026-09-05T
03:42:50+0000
1.708 km
极远距离
4.519341E-6 低风险 0.48
CDM_260905-051606-414606-538221
2026-09-05T
05:16:49+0000
2.041 km
极远距离
2.754843E-6 低风险 0.44
CDM_260904-181004-868106-414621
2026-09-04T
18:10:43+0000
2.600 km
极远距离
1.024521E-6 低风险 0.35